TimeAKST,TemperatureF,Dew PointF,Humidity,Sea Level PressureIn,VisibilityMPH,Wind Direction,Wind SpeedMPH,Gust SpeedMPH,PrecipitationIn,Events,Conditions,WindDirDegrees,DateUTC
12:53 AM,-38.0,-9999,N/A,30.16,7.0,SW,9.2,-,N/A,,Overcast,230,2013-02-06 09:53:00
1:53 AM,-38.0,-9999,N/A,30.16,7.0,SW,10.4,-,N/A,,Overcast,230,2013-02-06 10:53:00
2:43 AM,-38.2,-9999,N/A,30.15,10.0,SW,10.4,-,N/A,,Mostly Cloudy,220,2013-02-06 11:43:00
2:53 AM,-38.9,-9999,N/A,30.15,10.0,SW,9.2,-,N/A,,Mostly Cloudy,230,2013-02-06 11:53:00
3:53 AM,-38.0,-9999,N/A,30.15,10.0,SW,11.5,-,N/A,,Scattered Clouds,230,2013-02-06 12:53:00
4:53 AM,-38.9,-9999,N/A,30.14,10.0,SW,11.5,-,N/A,,Clear,230,2013-02-06 13:53:00
5:53 AM,-38.0,-9999,N/A,30.15,10.0,SW,11.5,-,N/A,,Mostly Cloudy,230,2013-02-06 14:53:00
6:53 AM,-38.0,-9999,N/A,30.13,9.0,SW,10.4,-,N/A,,Overcast,230,2013-02-06 15:53:00
7:53 AM,-38.0,-9999,N/A,30.13,9.0,SW,12.7,-,N/A,,Overcast,230,2013-02-06 16:53:00
8:53 AM,-38.0,-9999,N/A,30.13,9.0,SW,12.7,-,N/A,,Mostly Cloudy,220,2013-02-06 17:53:00
9:53 AM,-38.0,-9999,N/A,30.12,10.0,SW,12.7,-,N/A,,Mostly Cloudy,220,2013-02-06 18:53:00
10:53 AM,-38.0,-9999,N/A,30.12,10.0,SW,12.7,-,N/A,,Mostly Cloudy,220,2013-02-06 19:53:00
11:53 AM,-36.9,-9999,N/A,30.12,10.0,SW,13.8,-,N/A,,Partly Cloudy,230,2013-02-06 20:53:00
12:53 PM,-36.0,-9999,N/A,30.12,10.0,SW,13.8,-,N/A,,Clear,230,2013-02-06 21:53:00
1:53 PM,-36.0,-9999,N/A,30.11,10.0,SW,13.8,-,N/A,,Clear,230,2013-02-06 22:53:00
2:53 PM,-36.9,-9999,N/A,30.11,10.0,SW,12.7,-,N/A,,Scattered Clouds,230,2013-02-06 23:53:00
3:53 PM,-36.9,-9999,N/A,30.10,10.0,SW,13.8,-,N/A,,Scattered Clouds,220,2013-02-07 00:53:00
4:53 PM,-36.0,-9999,N/A,30.09,10.0,SW,13.8,-,N/A,,Scattered Clouds,230,2013-02-07 01:53:00
5:53 PM,-36.9,-9999,N/A,30.08,10.0,SW,12.7,-,N/A,,Scattered Clouds,230,2013-02-07 02:53:00
6:53 PM,-36.9,-9999,N/A,30.08,10.0,SW,15.0,-,N/A,,Scattered Clouds,230,2013-02-07 03:53:00
7:53 PM,-36.9,-9999,N/A,30.08,10.0,SW,15.0,-,N/A,,Partly Cloudy,220,2013-02-07 04:53:00
8:53 PM,-36.0,-9999,N/A,30.07,10.0,SW,13.8,-,N/A,,Clear,230,2013-02-07 05:53:00
9:53 PM,-36.0,-9999,N/A,30.06,10.0,SW,15.0,-,N/A,,Scattered Clouds,230,2013-02-07 06:53:00
10:53 PM,-36.0,-9999,N/A,30.04,10.0,SW,13.8,-,N/A,,Clear,230,2013-02-07 07:53:00
11:53 PM,-36.0,-9999,N/A,30.03,10.0,SW,13.8,-,N/A,,Clear,230,2013-02-07 08:53:00